Temp
26 27 27 27 28 30 29 29 29 29 31 31 30 30 28 27 27 27 26 25 25 26 27 28 28 28 28 28 27 27 26 26 25 24 24 23 23 24 24 25 25 25 25 26
26 26 29 30 30 29 29 28 28 29 31 30 30 30 29 27 28 28 28 27 27 27 26 26 28 28 28 29 28 27 27 27 26 25 25 24 24 25 26 26 26 25 25 25
27 29 30 29 30 29 28 28 28 30 31 30 30 29 30 29 29 29 28 28 28 28 27 26 26 28 28 28 28 28 28 28 27 26 25 24 24 24 24 24 25 25 25 25
27 28 30 29 29 29 28 30 30 31 29 29 30 28 29 28 28 29 30 28 28 28 27 26 26 27 28 29 29 29 29 28 28 27 25 25 24 23 24 25 26 26 26 26
31 28 29 30 30 31 31 32 30 31 28 29 29 28 28 29 29 29 28 29 30 28 28 28 27 28 30 29 29 30 29 28 28 27 27 25 24 24 25 25 26 26 26 26
29 31 31 31 33 32 33 31 28 26 26 28 28 28 28 28 29 30 30 29 30 29 28 29 29 29 29 30 29 29 28 29 28 27 26 26 25 25 24 25 26 26 26 26
27 28 30 32 33 32 31 30 29 29 28 28 25 28 28 31 31 30 31 31 29 29 28 28 28 27 29 29 29 29 29 28 28 28 27 26 25 24 24 23 22 23 23 23
28 31 32 33 34 33 30 29 28 30 28 28 27 29 31 29 28 29 32 30 29 29 28 27 28 29 29 29 28 29 29 29 27 27 26 25 25 24 23 24 24 22 22 22
28 30 32 33 33 33 32 30 28 25 25 27 27 28 30 28 28 28 28 27 26 26 26 26 26 28 29 29 29 29 29 28 27 27 27 26 26 25 24 24 24 24 24 27
30 29 31 32 33 33 33 29 30 26 29 30 27 28 28 27 27 27 26 26 26 26 26 26 25 27 28 28 27 27 27 27 27 27 27 27 25 24 23 24 23 23 24 26
28 28 30 31 33 32 31 30 24 24 24 27 27 28 26 25 25 27 25 25 24 24 24 24 23 24 24 23 23 24 24 24 25 26 25 25 24 23 22 22 23 24 24 24
28 26 28 31 32 32 32 32 27 27 29 22 25 27 26 25 26 26 25 24 24 23 22 22 21 21 21 21 21 21 22 23 22 23 22 21 22 22 22 22 23 22 21 20
28 27 28 31 31 32 32 30 24 23 23 25 27 26 27 25 25 24 24 23 22 22 22 20 20 20 20 21 21 22 22 22 23 23 22 22 22 23 22 21 21 21 21 20
28 26 29 28 31 30 34 33 29 28 27 25 25 26 27 27 26 25 24 23 22 21 21 20 19 19 21 23 24 24 24 23 23 23 22 21 22 22 22 21 21 20 21 22
30 30 28 29 29 30 31 30 32 33 29 31 28 25 25 25 25 25 24 23 23 22 22 21 20 20 21 23 24 25 25 25 24 24 22 22 22 22 22 22 22 20 19 20
26 30 28 32 32 32 30 29 29 27 26 25 25 27 26 24 24 24 23 23 22 23 23 22 21 21 21 22 23 24 25 25 25 24 24 24 23 22 22 22 21 21 21 21
28 28 28 30 28 31 31 28 29 27 26 26 28 26 25 25 24 23 22 22 22 22 23 22 22 22 23 25 25 25 25 25 24 24 24 24 23 22 22 21 21 21 21 21
25 25 25 28 29 31 29 27 27 26 26 25 25 24 25 24 24 23 22 22 22 22 23 22 22 23 24 24 24 23 23 22 22 22 22 22 22 22 22 21 21 21 21 20
25 23 23 27 25 27 29 28 28 31 28 27 25 25 24 23 23 24 24 23 22 23 22 22 23 23 22 22 22 21 21 21 21 21 20 20 19 19 19 21 20 20 19 19
25 24 27 23 28 27 27 30 28 28 27 25 25 25 24 24 24 22 24 24 23 23 23 23 23 22 21 21 21 20 19 19 18 18 18 18 19 18 18 20 19 19 18 18
24 22 25 24 27 27 27 26 28 28 26 25 25 24 24 23 22 22 23 23 23 22 22 22 21 21 20 20 19 18 18 17 17 17 17 18 18 18 18 17 18 18 17 17
27 25 24 22 26 30 24 27 28 24 24 24 24 23 22 22 22 23 23 22 20 19 20 21 21 21 20 19 18 17 16 17 16 16 17 17 17 16 16 16 16 16 15 15
28 25 25 25 24 22 22 23 23 22 23 24 22 22 22 22 23 22 20 19 19 20 20 20 19 19 19 18 16 15 15 15 16 15 15 15 15 15 15 15 15 15 15 15
25 21 21 23 24 24 24 24 24 24 23 23 22 22 23 22 21 19 18 18 18 19 19 18 18 17 16 16 15 15 15 14 14 14 14 14 14 14 14 15 15 15 15 15
23 23 20 21 23 24 25 25 23 23 23 22 22 22 22 20 19 18 18 18 18 18 18 17 16 15 15 14 14 14 14 13 13 13 13 14 14 14 14 14 15 14 15 15
21 21 22 23 21 21 22 23 23 22 22 21 21 21 21 20 19 19 18 18 18 17 17 16 15 14 14 14 13 13 13 13 12 12 13 13 13 13 13 14 15 15 15 15
Height
766 779 788 775 772 771 779 788 792 779 764 771 778 776 775 770 774 775 777 777 776 772 765 770 772 775 777 779 781 783 786 787 791 795 798 800 800 801 801 803 804 806 807 808
779 787 764 759 765 775 781 791 793 775 761 770 776 778 770 771 766 765 770 772 769 767 767 765 767 770 770 772 774 777 778 780 783 786 788 789 789 790 792 795 798 801 805 807
784 769 753 765 771 780 783 790 788 784 768 767 776 787 776 766 764 763 761 760 761 762 762 760 761 762 765 765 767 769 772 776 779 782 785 786 789 791 791 792 794 796 799 802
778 764 763 770 775 773 793 761 765 772 786 808 779 822 786 774 770 764 757 756 755 755 755 754 755 757 758 757 761 764 767 770 773 776 778 781 783 785 785 786 787 788 790 793
769 767 770 773 765 757 769 751 765 772 791 794 795 812 792 774 777 766 755 749 744 747 748 749 748 747 747 753 756 759 762 765 768 769 773 776 779 779 780 782 784 784 785 787
763 746 753 753 741 744 743 760 774 787 802 822 801 806 801 786 768 755 746 743 738 739 740 738 738 741 741 747 753 756 759 759 762 765 767 768 769 771 773 776 775 777 783 787
776 766 745 740 752 745 758 779 815 824 827 825 807 806 791 761 750 747 741 735 733 730 733 733 736 737 739 743 746 750 753 752 755 757 761 763 764 769 772 777 777 779 782 785
789 786 747 734 740 755 766 776 812 828 835 821 800 809 781 757 747 739 731 733 731 731 732 732 732 735 738 741 745 747 748 745 753 756 758 759 764 766 766 767 767 769 773 774
788 778 736 731 729 737 762 780 770 815 821 823 814 791 765 756 751 746 743 741 742 736 736 737 737 737 737 739 742 745 747 747 748 748 751 752 753 753 752 754 754 753 749 744
764 786 748 737 730 737 748 757 790 804 824 822 819 807 802 780 769 758 757 753 747 739 737 739 739 738 738 741 744 745 746 746 746 746 745 745 746 747 749 750 752 747 744 739
759 775 765 745 747 756 761 772 791 797 812 827 832 814 783 780 773 765 763 754 752 747 745 744 743 744 744 745 745 746 747 747 746 744 743 741 741 744 746 748 748 744 740 737
753 776 785 763 736 733 741 752 775 801 805 824 820 810 773 769 764 763 762 759 755 751 750 748 746 745 744 746 748 749 749 749 750 748 745 747 746 749 749 747 745 739 735 733
751 776 792 771 756 741 750 755 774 786 795 812 814 810 769 766 766 765 764 763 762 758 756 755 753 754 753 752 752 752 753 754 753 751 751 751 749 747 744 740 735 732 730 727
736 769 775 798 773 761 755 751 759 767 793 805 805 792 778 772 771 771 770 769 767 765 763 761 760 759 756 753 752 753 755 755 753 751 751 749 747 743 738 734 731 728 726 723
740 763 767 761 759 755 756 760 753 755 769 771 776 787 780 776 775 771 769 769 769 768 767 767 764 760 759 758 757 757 756 754 752 749 747 745 742 739 735 730 727 724 722 721
742 762 764 758 748 750 765 761 759 765 773 780 780 780 769 771 771 773 772 771 771 770 768 766 764 763 762 760 758 758 756 753 751 749 746 742 738 736 734 731 727 723 721 718
751 762 769 776 767 759 773 768 764 767 766 772 780 773 769 774 775 775 774 772 772 770 768 767 766 765 762 760 758 756 754 752 749 746 743 739 736 732 729 727 724 722 718 714
758 766 776 781 772 792 767 756 757 765 765 764 765 767 766 768 768 768 770 771 770 769 769 767 766 765 763 760 758 756 752 749 746 742 739 735 732 728 725 722 719 716 712 708
742 763 787 787 804 785 767 758 761 755 766 758 765 764 766 767 767 771 767 767 766 767 767 767 767 765 765 763 760 756 752 747 742 738 733 729 727 724 721 718 714 710 706 702
747 746 760 792 788 803 768 745 741 746 780 758 760 764 766 767 783 779 764 764 765 767 767 768 767 766 764 761 757 754 751 745 741 736 731 726 722 718 716 712 709 705 701 695
769 773 778 789 781 773 752 748 740 784 779 755 756 760 764 770 771 765 763 766 767 768 769 768 767 764 762 759 756 753 748 744 739 734 728 723 719 715 711 707 703 699 695 690
761 773 782 793 784 779 753 749 764 758 752 753 757 760 764 763 764 763 765 767 768 768 768 767 765 764 761 759 755 751 747 742 737 731 725 719 715 711 708 704 699 695 690 684
762 760 767 769 774 759 753 752 749 750 754 755 758 760 761 763 763 765 768 769 769 769 769 768 767 764 760 758 754 750 746 741 735 729 723 718 712 709 704 699 695 690 687 682
752 753 768 766 762 757 753 749 747 748 751 753 755 757 758 762 765 768 769 769 770 770 769 768 766 763 760 757 754 751 746 740 735 728 723 719 712 706 702 697 692 687 683 677
753 752 768 770 760 755 752 749 750 752 752 754 756 757 759 763 766 768 769 770 770 770 769 768 766 764 761 759 755 752 747 742 735 729 724 718 713 706 700 695 690 686 681 675
746 753 762 762 749 751 754 749 749 752 755 757 758 761 762 763 764 765 768 768 768 768 767 766 765 764 762 759 755 751 747 742 736 730 724 719 713 706 700 694 687 683 678 671
Wind_Speed
4 1 6 9 7 5 4 1 4 3 5 3 5 3 8 8 5 8 7 8 9 12 17 20 26 28 31 33 33 35 34 37 36 35 33 34 35 36 38 37 35 32 31 30
4 6 7 6 5 1 2 3 5 8 7 6 3 4 6 9 13 13 10 11 13 12 7 12 22 26 30 34 35 37 39 39 39 39 37 35 33 37 39 37 38 36 32 29
5 5 3 1 1 2 3 5 5 6 3 4 4 5 3 5 6 6 9 9 12 13 12 9 11 25 29 33 36 39 41 40 40 40 36 31 30 27 23 32 35 37 35 33
5 4 4 4 6 6 3 9 7 5 4 3 2 3 5 5 7 8 12 11 13 13 8 8 10 17 27 35 35 38 40 41 40 39 38 36 29 26 31 34 34 32 33 33
4 7 7 7 8 8 7 4 7 3 4 2 1 3 6 1 6 10 11 12 14 13 13 13 12 24 34 31 33 38 38 39 41 40 40 39 33 33 34 30 30 31 29 28
6 2 4 8 5 8 4 6 7 5 3 2 2 4 5 5 9 6 6 10 12 9 13 15 23 23 28 30 29 31 34 38 38 39 40 43 42 41 34 35 36 34 30 28
4 5 4 5 2 3 6 5 3 3 2 5 4 4 7 6 7 8 9 10 10 9 10 13 12 12 21 24 30 32 33 38 39 40 41 43 44 36 28 17 16 16 14 15
0 5 4 4 4 6 6 8 5 6 4 3 2 4 3 6 9 7 3 7 7 7 6 8 9 10 13 18 20 27 31 39 28 33 38 37 34 28 22 21 21 12 6 13
2 5 5 4 2 5 3 3 4 7 3 2 2 6 6 9 10 8 8 9 10 8 6 7 6 1 8 15 15 17 24 29 26 27 28 33 35 36 34 31 27 25 26 24
3 4 3 5 2 3 3 5 3 3 4 3 4 4 3 11 10 9 9 7 6 6 9 8 6 9 8 9 7 5 8 12 14 17 22 25 27 27 28 31 30 31 35 38
4 2 6 2 2 5 1 1 6 5 3 5 3 5 5 7 7 4 6 7 7 10 11 10 9 18 21 24 24 19 16 13 11 10 11 13 13 17 18 18 24 34 39 35
5 4 3 8 2 2 2 3 5 5 4 1 3 4 4 3 5 3 6 7 8 9 9 10 12 19 24 26 27 23 21 18 13 11 8 2 4 4 10 17 27 33 37 35
7 1 3 6 5 2 5 3 5 5 4 4 5 4 1 6 6 7 8 8 8 9 10 9 9 12 16 20 22 23 19 15 13 13 9 4 4 18 20 20 21 19 19 16
7 3 4 5 5 2 1 3 4 4 4 5 5 6 5 3 6 6 6 5 6 6 7 7 8 6 13 22 24 21 18 16 16 13 11 11 11 16 19 18 16 15 18 24
4 2 4 5 5 2 2 4 1 1 2 4 4 9 6 5 4 3 4 4 7 7 7 2 4 7 13 14 15 15 16 16 17 16 15 14 14 15 16 15 16 16 13 16
6 1 4 3 3 3 3 5 5 5 4 5 7 5 4 4 5 4 6 6 6 4 3 5 5 3 4 7 9 11 12 14 16 17 19 21 22 20 19 21 20 15 17 18
5 5 2 4 2 1 3 5 1 3 2 6 4 6 6 5 6 6 6 5 7 6 4 4 1 2 5 8 8 9 11 14 15 17 18 20 21 21 21 19 18 19 21 23
6 6 2 2 3 2 4 5 4 7 1 4 6 7 8 6 3 4 4 6 7 5 3 2 2 5 7 9 12 13 15 19 22 23 25 27 28 27 25 24 25 26 27 29
3 5 3 4 2 4 4 5 4 1 4 3 6 7 6 6 5 1 3 2 5 4 2 6 9 9 11 15 18 19 20 22 27 31 31 31 29 29 31 28 27 30 30 29
4 4 4 3 5 6 6 1 3 4 4 8 6 6 7 5 2 4 3 3 2 1 4 8 12 9 12 14 14 16 21 25 26 28 31 32 30 29 27 26 27 28 29 31
3 4 5 2 2 4 2 3 1 4 6 4 7 5 5 3 4 2 3 1 2 3 7 7 7 8 10 14 18 21 24 23 29 31 33 32 30 28 27 27 28 29 29 28
3 4 2 3 3 3 3 2 6 4 3 5 4 4 5 5 4 3 3 4 5 6 8 10 11 14 16 18 21 22 24 27 28 29 30 30 31 30 27 27 28 27 24 22
2 4 4 4 4 3 3 2 2 3 5 4 6 5 6 6 3 3 3 4 4 6 6 7 10 15 19 22 21 20 24 27 29 29 28 28 31 28 26 26 24 21 20 19
3 2 4 3 2 1 1 3 3 2 5 5 5 5 4 6 5 5 5 4 3 3 4 7 12 15 18 20 20 20 24 26 23 22 23 26 24 26 24 25 22 21 21 22
3 3 4 1 3 1 2 2 5 4 5 7 5 3 5 7 5 5 4 3 1 3 6 9 10 14 15 18 18 20 23 24 22 23 22 23 24 23 24 24 23 24 25 26
5 7 5 6 9 5 5 6 6 7 5 6 7 4 3 6 7 4 4 3 2 7 10 13 13 12 11 19 18 20 21 24 23 21 21 23 23 22 22 23 23 24 25 30
Wind_Direction
355 55 229 206 183 109 106 216 290 258 255 207 209 192 212 194 198 215 209 221 226 226 232 234 234 226 229 231 228 227 226 227 224 224 226 233 237 241 244 246 245 245 245 242
4 253 210 75 139 169 326 310 278 282 252 155 153 243 226 184 220 217 208 221 232 239 239 234 231 229 224 230 229 227 229 227 225 225 225 225 231 237 240 245 244 239 242 244
169 283 326 75 252 233 227 209 209 230 57 54 109 319 209 232 224 222 230 216 227 231 234 240 217 225 225 225 230 229 228 228 229 230 229 231 234 242 243 244 243 241 244 243
211 225 205 196 262 185 262 211 195 167 110 201 63 260 282 226 227 220 236 219 220 217 224 234 227 221 222 227 230 229 229 228 231 230 228 228 226 232 243 247 249 247 245 244
269 192 181 215 226 156 223 67 121 99 102 107 13 76 268 80 235 242 229 227 232 207 211 224 225 226 231 228 227 230 230 230 231 231 230 228 227 235 242 243 250 250 250 248
264 278 214 209 229 181 130 63 47 63 62 12 309 130 283 186 218 243 241 228 235 209 204 219 223 226 230 231 230 234 234 234 235 234 233 229 229 233 236 243 249 250 255 258
231 218 244 195 143 42 79 63 22 336 341 224 316 114 249 275 246 229 241 253 227 226 197 214 216 214 225 224 228 231 236 241 238 238 238 239 238 239 247 263 265 265 275 298
18 328 193 186 196 165 175 156 160 205 202 258 55 230 282 310 310 230 205 279 287 255 228 223 230 243 239 234 234 233 235 246 244 246 247 246 248 244 245 250 247 215 197 336
159 278 305 222 207 134 161 163 170 102 25 74 252 293 301 350 0 5 38 30 2 353 19 35 37 48 240 245 248 249 249 251 252 255 252 251 251 244 237 234 229 221 221 244
204 314 233 297 158 68 162 154 75 18 137 221 294 270 235 329 314 343 7 33 14 31 44 35 16 14 19 25 9 314 290 289 293 286 276 266 248 237 231 237 230 232 248 260
138 118 290 315 141 156 51 344 51 108 103 154 166 266 211 257 284 348 353 27 30 43 31 25 23 33 54 49 45 48 43 28 10 348 315 282 242 223 225 238 251 256 257 267
193 151 265 244 222 178 159 140 137 119 209 78 138 267 329 105 63 77 56 29 27 41 32 27 23 26 34 43 45 50 45 42 39 27 13 287 184 200 263 280 291 284 272 272
172 168 329 351 1 52 85 90 98 112 102 186 136 252 32 74 56 34 52 34 28 34 33 27 30 31 33 40 45 44 37 31 23 25 17 2 281 309 307 303 305 295 284 277
113 110 151 190 210 203 245 134 172 120 111 170 210 170 209 133 108 55 54 73 67 56 51 44 36 18 38 42 38 33 30 22 12 3 342 312 312 325 327 324 302 291 284 277
151 152 189 238 248 218 348 22 24 303 125 154 196 158 190 172 136 109 106 82 70 56 50 46 57 38 37 37 31 22 14 7 358 350 341 334 321 318 328 332 327 308 275 268
13 187 186 321 65 141 85 36 65 66 115 63 121 110 144 122 107 117 141 128 112 128 129 74 64 50 21 19 11 2 357 355 346 340 333 328 325 324 323 322 318 309 297 293
135 157 94 263 4 205 346 341 37 107 56 143 146 197 151 127 149 159 164 163 166 167 146 113 79 345 358 347 330 324 330 332 324 321 319 317 314 315 316 312 306 300 303 307
146 113 87 224 1 188 274 342 199 126 118 141 108 141 148 149 100 124 190 180 166 164 161 200 253 276 286 295 301 305 310 323 323 318 316 311 307 301 304 306 303 301 306 306
129 121 81 127 90 294 307 245 203 116 213 196 146 145 132 135 112 60 166 154 170 196 223 254 262 281 322 332 323 311 309 324 329 328 325 324 321 315 307 306 309 309 309 306
59 84 109 150 136 198 239 94 98 116 289 173 145 149 142 148 69 256 201 177 177 345 293 312 327 320 324 332 336 323 326 332 330 328 325 327 326 322 315 312 310 310 310 307
14 19 117 122 140 275 267 303 18 98 243 135 144 145 142 132 186 209 164 120 30 331 341 336 349 355 343 340 339 337 339 336 331 328 328 326 326 325 324 324 320 316 313 308
173 121 129 95 98 253 19 65 162 200 102 115 103 102 105 120 144 167 139 98 45 31 38 31 9 349 345 349 348 343 335 334 334 333 333 333 332 330 328 328 323 319 306 296
64 168 176 163 211 258 268 264 56 112 114 113 117 146 143 131 123 91 109 82 76 49 27 3 346 337 343 350 352 343 338 337 332 330 329 328 333 329 332 327 321 314 317 308
38 125 98 102 270 5 69 89 82 98 122 138 142 140 135 130 133 116 109 92 64 12 344 333 341 342 342 353 354 350 344 341 331 329 329 326 329 331 336 330 327 318 320 316
188 101 127 4 281 50 277 134 141 118 99 93 71 104 132 129 137 149 150 161 218 324 336 342 343 342 345 351 352 354 353 350 338 336 333 329 331 332 326 321 321 326 326 318
185 169 165 215 192 146 187 163 139 126 119 128 122 100 101 148 150 148 171 187 308 344 350 346 348 347 347 352 355 357 356 356 351 336 333 334 333 331 328 326 327 336 336 344